Powrót do katalogu

STARLINK-37115

AktywnyŁącznośćSSO
NORAD 68297·PAYLOAD·🇺🇸 United States

Wystrzelony Mar 20, 2026 z Vandenberg Space Force Base

Loading…

Następne Przeloty (najbliższe 24 godziny)

TLE

ŚwieżeSource: CelesTrak SupGP

Epoka: Sep 15, 2026, 03:27 UTC

1 68297C 26057D   26258.14423611 -.00005225  00000+0 -16223-3 0  2587
2 68297  97.2851  23.5699 0000891  77.6706 131.3364 15.33437012    12

Śledź STARLINK-37115 w czasie rzeczywistym z AllMySat

Download on the App Store